[[{"header":{"parameterUnit":"m.s-1","parameterCategory":1,"la1":30.2991,"la2":30.254,"lo1":-89.0895,"lo2":-89.0444,"dy":0.0017,"dx":0.0017,"nx":28,"ny":28,"refTime":"2025-02-04T03:00:00:Z","depth":0,"parameterNumber":2,"parameterNumberName":"U-component_of_WINDS"},"data":[0,0,0,0,0,0,0,0,0,0,0,0,0,0,0,0,0,0,0,0,0,0,0,0,0,0,0,0,0,0,0,0,0,0,0,0,0,0,0,0,0,0,0,0,0,0,0,0,0,0,0,0,0,0,0,0,0,0,-1.3607,-1.3607,0,-1.3591,-1.3591,-1.3591,-1.3528,-1.3526,-1.3525,-1.3523,-1.3508,-1.3509,-1.351,0,0,0,0,0,0,0,0,0,0,0,0,0,-1.3584,-1.3585,-1.3607,-1.3607,-1.3607,-1.3591,-1.3591,-1.3591,-1.3528,-1.3526,-1.3524,-1.3523,-1.3508,-1.3509,-1.351,0,0,0,0,0,0,0,0,0,0,0,0,0,-1.3584,-1.3585,-1.3607,-1.3573,-1.357,-1.3591,-1.3591,-1.3591,-1.3528,-1.3526,-1.3524,-1.3522,-1.3507,-1.3509,-1.351,-1.3563,0,0,-1.3514,-1.3515,0,0,0,0,0,0,0,0,-1.3584,-1.3585,-1.3579,-1.3576,-1.3572,-1.3559,-1.3577,-1.3582,-1.3529,-1.3544,-1.3523,-1.3521,-1.3527,-1.3527,-1.3528,-1.3562,-1.3562,-1.3515,-1.3515,-1.3516,-1.3516,0,0,0,0,0,0,0,-1.3584,-1.3585,-1.3601,-1.3579,-1.3575,-1.356,-1.3557,-1.3578,-1.3548,-1.3543,-1.3538,-1.3537,-1.3525,-1.3527,-1.3528,-1.3561,-1.3515,-1.3516,-1.3517,-1.3517,-1.3638,-1.3641,0,0,0,0,0,0,-1.3589,-1.3586,-1.3601,-1.36,-1.3573,-1.3562,-1.3559,-1.3566,-1.3548,-1.3543,-1.3539,-1.3534,-1.3526,-1.3526,-1.3527,-1.3587,-1.3516,-1.3517,-1.3518,-1.3636,-1.3639,-1.3641,0,0,0,0,0,0,-1.3589,-1.3591,-1.3602,-1.3592,-1.3592,-1.3564,-1.3572,-1.3566,-1.3569,-1.3545,-1.3539,-1.3547,-1.3524,-1.3525,-1.3554,-1.3586,-1.3518,-1.3519,-1.3633,-1.3637,-1.364,-1.3709,0,0,0,0,0,0,-1.3588,-1.3591,-1.361,-1.3593,-1.3593,-1.363,-1.3574,-1.3568,-1.3571,-1.3565,-1.3551,-1.3546,-1.3522,-1.3553,-1.3556,-1.3587,-1.3521,-1.363,-1.3635,-1.3639,-1.3704,-1.3715,-1.3724,0,0,0,0,0,-1.3588,-1.3631,-1.3612,-1.3614,-1.3616,-1.3632,-1.3632,-1.3603,-1.3574,-1.3594,-1.3578,-1.3547,-1.3582,-1.3556,-1.3559,-1.3591,-1.3628,-1.3634,-1.3639,-1.37,-1.3713,-1.3724,0,0,0,0,0,0,-1.3652,-1.3627,-1.3606,-1.3645,-1.3641,-1.3621,-1.3644,-1.3618,-1.3622,-1.3616,-1.3581,-1.3578,-1.3613,-1.3605,-1.3576,-1.3642,-1.36,-1.3606,-1.3645,-1.3657,-1.3667,-1.3668,-1.3522,0,0,0,0,0,-1.3671,-1.3685,-1.3663,-1.3699,-1.3698,-1.3672,-1.3678,-1.3656,-1.3651,-1.3649,-1.3635,-1.3632,-1.3642,-1.3649,-1.3658,-1.3703,-1.3699,-1.3727,-1.3737,-1.3745,-1.375,-1.3774,-1.3786,-1.3659,-1.3659,-1.3659,0,0,-1.371,-1.3698,-1.3709,-1.3712,-1.3706,-1.3722,-1.3671,-1.369,-1.3701,-1.3651,-1.3678,-1.3669,-1.3663,-1.3701,-1.3717,-1.3695,-1.3785,-1.3752,-1.3758,-1.3759,-1.3781,-1.3793,-1.3804,-1.3662,-1.3662,-1.3661,0,0,-1.3789,-1.3782,-1.3811,-1.3807,-1.3799,-1.3781,-1.3789,-1.3773,-1.3765,-1.3791,-1.3755,-1.3768,-1.3787,-1.3784,-1.3785,-1.3864,-1.3835,-1.3868,-1.392,-1.3943,-1.3953,-1.3962,-1.399,-1.4001,-1.3874,-1.3874,-1.3874,0,-1.3838,-1.386,-1.3829,-1.3851,-1.3853,-1.3809,-1.3839,-1.3837,-1.3832,-1.3835,-1.3811,-1.3834,-1.3827,-1.3863,-1.3883,-1.3885,-1.3893,-1.3869,-1.3954,-1.3963,-1.397,-1.3997,-1.4007,-1.3878,-1.3878,-1.3877,-1.3877,0,-1.3921,-1.3937,-1.3962,-1.3958,-1.3964,-1.3989,-1.3963,-1.3973,-1.3951,-1.3937,-1.3965,-1.3955,-1.396,-1.3968,-1.3947,-1.4002,-1.3989,-1.396,-1.3917,-1.3987,-1.4011,-1.4021,-1.3884,-1.3882,-1.3881,-1.388,0,0,-1.4038,-1.4019,-1.4028,-1.4027,-1.4016,-1.4028,-1.4052,-1.4057,-1.4066,-1.4065,-1.4084,-1.4102,-1.4076,-1.4077,-1.4056,-1.4077,-1.414,-1.4045,-1.4045,-1.4063,-1.42,-1.4221,-1.4233,-1.4122,-1.4124,-1.4125,-1.4201,0,-1.4113,-1.4152,-1.4126,-1.417,-1.4184,-1.4144,-1.4165,-1.4161,-1.4149,-1.416,-1.4146,-1.4159,-1.4123,-1.4124,-1.4143,-1.4129,-1.4167,-1.4123,-1.4139,-1.414,-1.4141,-1.4246,-1.4268,-1.434,-1.421,-1.4212,-1.4213,0,-1.4204,-1.4207,-1.4253,-1.424,-1.4245,-1.4264,-1.4267,-1.4279,-1.4274,-1.4263,-1.4266,-1.4239,-1.4263,-1.4222,-1.4254,-1.4224,-1.423,-1.4224,-1.4226,-1.4226,-1.418,-1.4248,-1.4362,-1.4372,-1.4227,-1.4226,-1.4225,0,-1.4285,-1.4301,-1.433,-1.433,-1.4315,-1.433,-1.4325,-1.4318,-1.4323,-1.4326,-1.4329,-1.4336,-1.4339,-1.4345,-1.4321,-1.4294,-1.4356,-1.4313,-1.4348,-1.4349,-1.4362,-1.4361,-1.4478,-1.4368,-1.4367,-1.4367,-1.4367,0,-1.437,-1.4399,-1.4366,-1.4384,-1.4415,-1.4386,-1.4418,-1.4409,-1.4403,-1.4419,-1.4385,-1.4401,-1.4369,-1.4382,-1.4364,-1.4393,-1.4395,-1.4388,-1.4382,-1.439,-1.4391,-1.4392,-1.4386,-1.437,-1.4369,-1.4369,-1.4368,0,-1.4464,-1.4443,-1.4472,-1.4457,-1.4454,-1.4478,-1.4465,-1.4481,-1.4467,-1.4487,-1.449,-1.4468,-1.4481,-1.4459,-1.447,-1.4458,-1.4498,-1.4486,-1.45,-1.4496,-1.4531,-1.4528,-1.4652,-1.4667,-1.4548,-1.4549,-1.455,0,-1.4519,-1.4541,-1.4528,-1.4536,-1.4533,-1.4547,-1.4552,-1.4524,-1.4531,-1.4528,-1.4545,-1.4556,-1.4562,-1.4586,-1.4571,-1.4579,-1.4566,-1.4609,-1.4567,-1.4574,-1.4566,-1.4564,-1.4566,-1.4617,-1.4618,-1.462,-1.4621,0,-1.462,-1.4608,-1.4617,-1.4623,-1.463,-1.4634,-1.4634,-1.4643,-1.4614,-1.4624,-1.4637,-1.4643,-1.4654,-1.4665,-1.4669,-1.4664,-1.4638,-1.4634,-1.4642,-1.465,-1.4657,-1.4653,-1.4522,-1.4631,-1.463,-1.4629,-1.4629,-1.4628,-1.4695,-1.4713,-1.4707,-1.4718,-1.4716,-1.4718,-1.4732,-1.472,-1.4731,-1.4737,-1.4721,-1.4738,-1.4734,-1.4738,-1.4736,-1.4749,-1.473,-1.4743,-1.4746,-1.4749,-1.4754,-1.4656,-1.475,-1.475,-1.475,-1.4749,-1.4749,0,-1.4793,-1.4787,-1.4798,-1.4801,-1.481,-1.4785,-1.4785,-1.4794,-1.481,-1.4808,-1.4816,-1.4831,-1.4842,-1.4829,-1.4837,-1.4851,-1.4839,-1.4854,-1.4852,-1.4851,-1.4771,-1.4762,-1.4863,-1.4863,-1.4863,-1.4863,-1.4863,-1.4863,-1.4845,-1.4873,-1.4861,-1.4889,-1.4883,-1.4899,-1.4902,-1.4903,-1.4902,-1.4921,-1.493,-1.4921,-1.4915,-1.4923,-1.4932,-1.4928,-1.4932,-1.4951,-1.4943,-1.4868,-1.4857,-1.4846,-1.4838,-1.4953,-1.4953,-1.5022,-1.5023,-1.5023]},{"header":{"parameterUnit":"m.s-1","parameterCategory":1,"la1":30.2991,"la2":30.254,"lo1":-89.0895,"lo2":-89.0444,"dy":0.0017,"dx":0.0017,"nx":28,"ny":28,"refTime":"2025-02-04T03:00:00:Z","depth":0,"parameterNumber":3,"parameterNumberName":"V-component_of_WINDS"},"data":[0,0,0,0,0,0,0,0,0,0,0,0,0,0,0,0,0,0,0,0,0,0,0,0,0,0,0,0,0,0,0,0,0,0,0,0,0,0,0,0,0,0,0,0,0,0,0,0,0,0,0,0,0,0,0,0,0,0,1.3375,1.3375,0,1.3388,1.3388,1.3388,1.3431,1.3432,1.3433,1.3434,1.3446,1.3445,1.3445,0,0,0,0,0,0,0,0,0,0,0,0,0,1.3388,1.3388,1.3375,1.3375,1.3376,1.3388,1.3388,1.3388,1.3431,1.3432,1.3433,1.3434,1.3446,1.3446,1.3445,0,0,0,0,0,0,0,0,0,0,0,0,0,1.339,1.3388,1.3375,1.3398,1.34,1.3388,1.3388,1.3388,1.343,1.3432,1.3433,1.3435,1.3446,1.3446,1.3445,1.3411,0,0,1.3442,1.3442,0,0,0,0,0,0,0,0,1.339,1.3389,1.3395,1.3397,1.3399,1.3409,1.3397,1.3396,1.343,1.3419,1.3434,1.3435,1.3433,1.3433,1.3432,1.3412,1.3412,1.3442,1.3442,1.3441,1.3441,0,0,0,0,0,0,0,1.339,1.3389,1.338,1.3395,1.3397,1.3408,1.341,1.3397,1.3418,1.342,1.3423,1.3424,1.3434,1.3433,1.3433,1.3412,1.3442,1.3441,1.3441,1.3441,1.3366,1.3365,0,0,0,0,0,0,1.3386,1.3389,1.338,1.3381,1.3398,1.3407,1.3409,1.3404,1.3418,1.3421,1.3423,1.3426,1.3434,1.3434,1.3433,1.3396,1.3441,1.3441,1.344,1.3368,1.3366,1.3364,0,0,0,0,0,0,1.3386,1.3385,1.3379,1.3386,1.3386,1.3405,1.34,1.3404,1.3403,1.342,1.3424,1.3418,1.3435,1.3435,1.3417,1.3397,1.344,1.3439,1.337,1.3367,1.3365,1.332,0,0,0,0,0,0,1.3386,1.3385,1.3372,1.3385,1.3385,1.3362,1.3399,1.3403,1.3401,1.3406,1.3416,1.3419,1.3436,1.3418,1.3416,1.3397,1.3439,1.3371,1.3369,1.3366,1.3323,1.3316,1.331,0,0,0,0,0,1.3387,1.3358,1.3371,1.337,1.3369,1.3361,1.3361,1.338,1.34,1.3387,1.3398,1.3419,1.3399,1.3415,1.3414,1.3394,1.3373,1.3369,1.3366,1.3326,1.3318,1.3311,0,0,0,0,0,0,1.3341,1.336,1.3375,1.3349,1.3353,1.3368,1.3353,1.3371,1.3369,1.3373,1.3398,1.34,1.3378,1.3384,1.3402,1.3363,1.339,1.3386,1.336,1.3352,1.3346,1.3345,1.3438,0,0,0,0,0,1.3328,1.332,1.3337,1.3313,1.3314,1.3333,1.333,1.3345,1.335,1.3352,1.3361,1.3365,1.336,1.3356,1.3352,1.3324,1.3328,1.331,1.3303,1.3298,1.3295,1.3282,1.3274,1.3354,1.3354,1.3354,0,0,1.3301,1.3311,1.3304,1.3304,1.3309,1.33,1.3334,1.3322,1.3316,1.335,1.3334,1.3341,1.3347,1.3325,1.3315,1.3329,1.3274,1.3294,1.329,1.3289,1.3277,1.327,1.3263,1.3351,1.3352,1.3352,0,0,1.3248,1.3254,1.3235,1.324,1.3247,1.326,1.3255,1.3268,1.3274,1.3259,1.3284,1.3277,1.3267,1.3271,1.3272,1.3222,1.3241,1.322,1.3187,1.3174,1.3167,1.3162,1.3145,1.3139,1.3216,1.3216,1.3216,0,1.3214,1.3201,1.3223,1.3211,1.3211,1.3241,1.3223,1.3226,1.3231,1.3231,1.3246,1.3236,1.3242,1.3221,1.3209,1.3208,1.3205,1.3219,1.3167,1.3161,1.3157,1.3141,1.3134,1.3213,1.3214,1.3214,1.3214,0,1.3159,1.315,1.3134,1.314,1.3138,1.3122,1.3142,1.3138,1.3153,1.3165,1.3149,1.3158,1.3157,1.3153,1.3167,1.3135,1.3143,1.3162,1.319,1.3146,1.3132,1.3126,1.321,1.3211,1.3211,1.3212,0,0,1.3077,1.3096,1.309,1.3093,1.3104,1.3098,1.3084,1.3084,1.308,1.3083,1.3073,1.3064,1.3083,1.3083,1.3099,1.3087,1.3048,1.3108,1.3108,1.3097,1.3014,1.3,1.2993,1.3061,1.306,1.3059,1.3014,0,1.3027,1.3005,1.3025,1.3,1.2993,1.3022,1.3011,1.3016,1.3027,1.3022,1.3034,1.3029,1.3052,1.3053,1.3043,1.3055,1.3032,1.3059,1.3053,1.3052,1.3051,1.2985,1.297,1.2927,1.3008,1.3007,1.3007,0,1.2966,1.2967,1.2941,1.2955,1.2953,1.2942,1.2944,1.2939,1.2947,1.2956,1.2957,1.2976,1.2965,1.2991,1.2976,1.2994,1.2993,1.2998,1.2997,1.2998,1.3027,1.2985,1.2913,1.2907,1.2998,1.2998,1.2999,0,1.291,1.2905,1.2889,1.2891,1.2907,1.2899,1.2905,1.2914,1.2913,1.2915,1.2915,1.2915,1.2915,1.2915,1.2934,1.2951,1.2916,1.2944,1.2924,1.2923,1.2916,1.2916,1.2844,1.2913,1.2913,1.2914,1.2914,0,1.2853,1.2836,1.2865,1.2855,1.2837,1.2861,1.2843,1.2852,1.286,1.2853,1.2878,1.2871,1.2896,1.2892,1.2906,1.2892,1.2892,1.2899,1.2903,1.2897,1.2896,1.2897,1.2901,1.2912,1.2912,1.2913,1.2913,0,1.2788,1.2806,1.2791,1.2807,1.2811,1.2798,1.2812,1.2804,1.2817,1.2808,1.2807,1.2827,1.2823,1.2842,1.2841,1.2851,1.283,1.2839,1.2828,1.2831,1.281,1.2812,1.2736,1.2728,1.2802,1.2801,1.28,0,1.275,1.2738,1.2754,1.2751,1.2756,1.2752,1.2751,1.2774,1.2773,1.2781,1.2772,1.2771,1.2771,1.2764,1.2778,1.2778,1.2788,1.2761,1.2788,1.2783,1.2789,1.279,1.2789,1.2756,1.2755,1.2754,1.2754,0,1.2682,1.2693,1.2691,1.2693,1.2692,1.2694,1.2699,1.2695,1.272,1.2717,1.2714,1.2714,1.2714,1.2713,1.2716,1.2723,1.2742,1.2745,1.2741,1.2735,1.2729,1.2733,1.2814,1.2747,1.2747,1.2748,1.2748,1.2749,1.2631,1.2622,1.2632,1.263,1.2636,1.264,1.2633,1.2646,1.2644,1.2646,1.266,1.2654,1.2663,1.267,1.2675,1.2671,1.2684,1.2677,1.2675,1.2673,1.267,1.2729,1.2672,1.2672,1.2672,1.2672,1.2672,0,1.2565,1.2574,1.2572,1.2577,1.2576,1.2595,1.2601,1.2598,1.2594,1.26,1.26,1.2597,1.2597,1.2611,1.2612,1.2607,1.2616,1.2606,1.2607,1.2609,1.2658,1.2662,1.2599,1.2599,1.2599,1.2599,1.2599,1.2599,1.2531,1.2518,1.2529,1.252,1.2528,1.2524,1.2526,1.2529,1.2535,1.2531,1.2531,1.254,1.2551,1.2553,1.2553,1.2558,1.2557,1.2545,1.2552,1.2598,1.2605,1.2612,1.2616,1.2544,1.2544,1.2503,1.2503,1.2503]}]]